Weather History for Campo, CA

Change the Weather History Date:

Wednesday, February 6, 2013

  Actual Average Record
Temperature  
Mean Temperature 50 °F 49 °F  
Max Temperature 58 °F 63 °F 83 °F (1963)
Min Temperature 42 °F 35 °F 19 °F (1955)
Degree Days  
Heating Degree Days 15 16  
Month to date heating degree days 75 96  
Since 1 July heating degree days 1656 1712  
Cooling Degree Days 0 0  
Month to date cooling degree days 0 0  
Year to date cooling degree days 0 0  
Moisture  
Dew Point 39 °F    
Average Humidity 72    
Maximum Humidity 89    
Minimum Humidity 55    
Precipitation  
Precipitation 0.00 in 0.11 in 1.52 in (1976)
Month to date precipitation 0.00 0.62  
Year to date precipitation 2.03 3.60  
Since 1 July precipitation 6.50 9.18  
Snow  
Snow 0.00 in - - ()
Month to date snowfall 0.0  
Year to date snowfall 0.0  
Since 1 July snowfall 0.0  
Snow Depth 0.00 in    
Sea Level Pressure  
Sea Level Pressure 29.96 in    
Wind  
Wind Speed 4 mph (SW)    
Max Wind Speed 15 mph    
Max Gust Speed 17 mph    
T = Trace of Precipitation, MM = Missing Value Source: NWS Daily Summary

Daily Weather History Graph

Daily Weather History Graph

Search for Another Location

Airport:

Trip Planner

Search our weather history database for the weather conditions in past years. The results will help you decide how hot, cold, wet, or windy it might be!

Date:

Astronomy

Feb. 06, 2013 Rise Set
Actual Time 6:36 AM PST 5:23 PM PST
Civil Twilight 6:11 AM PST 5:49 PM PST
Nautical Twilight 5:41 AM PST 6:18 PM PST
Astronomical Twilight 5:12 AM PST 6:47 PM PST
Moon 3:18 AM PST (2/6) 1:52 PM PST (2/6)
Length of Visible Light 11h 38m
Length of Day
10h 47m
Waning Crescent, 16% of the Moon is Illuminated
Feb 6
Waning Crescent
Feb 9
New
Feb 17
First Quarter
Feb 25
Full
Mar 4
Last Quarter

Hourly Weather History & Observations

Time (PST) Temp. Windchill Dew Point Humidity Pressure Visibility Wind Dir Wind Speed Gust Speed Precip Events Conditions
12:52 AM 46.0 °F - 43.0 °F 89% 29.93 in - Calm Calm - N/A   Unknown
1:52 AM 46.0 °F - 42.1 °F 86% 29.91 in - Calm Calm - N/A   Unknown
2:52 AM 45.0 °F 43.5 °F 41.0 °F 86% 29.91 in - SW 3.5 mph - N/A   Unknown
3:52 AM 44.1 °F 40.8 °F 39.9 °F 85% 29.92 in - West 5.8 mph - N/A   Unknown
4:52 AM 44.1 °F - 39.0 °F 82% 29.92 in - Calm Calm - N/A   Unknown
5:52 AM 44.1 °F - 39.0 °F 82% 29.92 in - Calm Calm - N/A   Unknown
6:52 AM 42.1 °F 39.2 °F 37.9 °F 85% 29.95 in - NW 4.6 mph - N/A   Unknown
7:52 AM 44.1 °F - 39.0 °F 82% 29.96 in - Calm Calm - N/A   Unknown
8:52 AM 45.0 °F 43.5 °F 39.0 °F 80% 29.97 in - SSW 3.5 mph - N/A   Unknown
9:52 AM 46.0 °F 43.1 °F 39.0 °F 76% 29.98 in - South 5.8 mph - N/A   Unknown
10:52 AM 48.9 °F - 39.9 °F 71% 29.98 in - Calm Calm - N/A   Unknown
11:52 AM 52.0 °F - 39.9 °F 63% 29.96 in - SSW 8.1 mph - N/A   Unknown
12:52 PM 54.0 °F - 39.9 °F 59% 29.94 in - SW 11.5 mph - N/A   Unknown
1:52 PM 55.9 °F - 41.0 °F 57% 29.93 in - SSW 10.4 mph - N/A   Unknown
2:52 PM 57.0 °F - 41.0 °F 55% 29.93 in - SW 11.5 mph - N/A   Unknown
3:52 PM 57.0 °F - 41.0 °F 55% 29.94 in - SW 11.5 mph - N/A   Unknown
4:52 PM 55.0 °F - 41.0 °F 59% 29.95 in - SSW 5.8 mph - N/A   Unknown
5:52 PM 51.1 °F - 42.1 °F 71% 29.97 in - Calm Calm - N/A   Unknown
6:52 PM 43.0 °F 39.5 °F 37.9 °F 82% 29.99 in - NE 5.8 mph - N/A   Unknown
7:52 PM 39.9 °F 36.7 °F 36.0 °F 86% 30.01 in - NNE 4.6 mph - N/A   Unknown
8:52 PM 37.9 °F 33.5 °F 34.0 °F 86% 30.03 in - NE 5.8 mph - N/A   Unknown
9:52 PM 37.0 °F - 34.0 °F 89% 30.04 in - Calm Calm - N/A   Unknown
10:52 PM 36.0 °F 33.3 °F 32.0 °F 86% 30.04 in - NE 3.5 mph - N/A   Unknown
11:52 PM 33.1 °F 27.7 °F 28.9 °F 85% 30.05 in - ENE 5.8 mph - N/A   Unknown